Adana, Turkey

5:51 PM EET on February 11, 2016 (GMT +0200)
Adana

Weather History for LTAF - March, 2013

Change the Weather History Date:

Tuesday, March 5, 2013

  Actual Average Record
Temperature  
Mean Temperature 54 °F -  
Max Temperature 62 °F 66 °F 78 °F (2002)
Min Temperature 46 °F 46 °F 32 °F (2012)
Degree Days  
Heating Degree Days 11    
Growing Degree Days 4 (Base 50)    
Moisture  
Dew Point 27 °F    
Average Humidity 39    
Maximum Humidity 76    
Minimum Humidity 19    
Precipitation  
Precipitation 0.00 in 0.09 in - ()
Sea Level Pressure  
Sea Level Pressure 29.99 in    
Wind  
Wind Speed 12 mph ()    
Max Wind Speed 32 mph    
Max Gust Speed 53 mph    
Visibility 5.0 miles    
Events      
Averages and records for this station are not official NWS values.
T = Trace of Precipitation, MM = Missing Value Source: Averaged Metar Reports

Daily Weather History Graph

Daily Weather History Graph

Search for Another Location

Airport or City:

Trip Planner

Search our weather history database for the weather conditions in past years. The results will help you decide how hot, cold, wet, or windy it might be!

Date:

Astronomy

Mar. 05, 2013 Rise Set
Actual Time 6:04 AM EET 5:36 PM EET
Civil Twilight 5:38 AM EET 6:02 PM EET
Nautical Twilight 5:08 AM EET 6:32 PM EET
Astronomical Twilight 4:38 AM EET 7:03 PM EET
Moon 12:49 AM EET (3/5) 11:01 AM EET (3/5)
Length of Visible Light 12h 24m
Length of Day
11h 32m
Last Quarter, 44% of the Moon is Illuminated
Mar 5
Last Quarter
Mar 11
New
Mar 19
First Quarter
Mar 27
Full
Apr 3
Last Quarter

Hourly Weather History & Observations

Time (EET) Temp. Windchill Dew Point Humidity Pressure Visibility Wind Dir Wind Speed Gust Speed Precip Events Conditions
12:20 AM 57.2 °F - 39.2 °F 51% 29.86 in 3.1 mi NNE 8.1 mph - N/A   Haze
12:50 AM 57.2 °F - 37.4 °F 48% 29.86 in 3.1 mi NNE 10.4 mph - N/A   Haze
1:20 AM 57.2 °F - 35.6 °F 44% 29.86 in 3.1 mi North 8.1 mph - N/A   Haze
1:50 AM 57.2 °F - 37.4 °F 48% 29.86 in 3.1 mi ENE 8.1 mph - N/A   Haze
2:20 AM 55.4 °F - 42.8 °F 63% 29.86 in 3.1 mi NE 11.5 mph - N/A   Haze
2:50 AM 51.8 °F - 42.8 °F 71% 29.86 in 3.1 mi NE 9.2 mph - N/A   Mostly Cloudy
3:20 AM 51.8 °F - 41.0 °F 67% 29.86 in 3.1 mi NNE 6.9 mph - N/A   Mostly Cloudy
3:50 AM 51.8 °F - 41.0 °F 67% 29.86 in 3.1 mi NNE 4.6 mph - N/A   Haze
4:20 AM 50.0 °F - 41.0 °F 71% 29.86 in 3.1 mi NNE 4.6 mph - N/A   Mostly Cloudy
4:50 AM 50.0 °F - 39.2 °F 66% 29.89 in 3.1 mi NE 4.6 mph - N/A   Haze
5:20 AM 50.0 °F - 39.2 °F 66% 29.89 in 3.1 mi NNE 4.6 mph - N/A   Haze
5:50 AM 46.4 °F 42.4 °F 39.2 °F 76% 29.89 in 3.1 mi NE 8.1 mph - N/A   Scattered Clouds
6:20 AM 50.0 °F - 39.2 °F 66% 29.92 in 3.1 mi NNW 3.5 mph - N/A   Haze
6:50 AM 51.8 °F - 39.2 °F 62% 29.92 in 3.1 mi NNE 8.1 mph - N/A   Haze
7:20 AM 53.6 °F - 39.2 °F 58% 29.92 in 3.1 mi NE 5.8 mph - N/A   Haze
7:50 AM 57.2 °F - 33.8 °F 41% 29.95 in 3.1 mi North 8.1 mph - N/A   Haze
8:20 AM 59.0 °F - 33.8 °F 39% 29.95 in 6.2 mi NW 9.2 mph - N/A   Partly Cloudy
8:50 AM 60.8 °F - 30.2 °F 31% 29.95 in 6.2 mi NNW 11.5 mph - N/A   Partly Cloudy
9:20 AM 60.8 °F - 30.2 °F 31% 29.95 in - North 15.0 mph - N/A   Clear
9:50 AM 62.6 °F - 30.2 °F 30% 29.98 in - NNW 15.0 mph - N/A   Clear
10:20 AM 60.8 °F - 28.4 °F 29% 29.98 in - NNW 21.9 mph - N/A   Clear
10:50 AM 62.6 °F - 30.2 °F 30% 29.98 in - NNW 19.6 mph - N/A   Clear
11:20 AM 62.6 °F - 28.4 °F 27% 29.98 in - NNW 20.7 mph - N/A   Clear
11:50 AM 60.8 °F - 26.6 °F 27% 29.98 in - NNW 24.2 mph 36.8 mph N/A   Clear
12:20 PM 60.8 °F - 26.6 °F 27% 29.95 in - NNW 23.0 mph 34.5 mph N/A   Clear
12:50 PM 60.8 °F - 24.8 °F 25% 29.95 in - NNW 24.2 mph - N/A   Clear
1:20 PM 59.0 °F - 24.8 °F 27% 29.98 in 6.2 mi NNW 23.0 mph - N/A   Scattered Clouds
1:50 PM 59.0 °F - 24.8 °F 27% 29.98 in 6.2 mi NNW 25.3 mph - N/A   Scattered Clouds
2:20 PM 59.0 °F - 24.8 °F 27% 29.98 in 6.2 mi NNW 23.0 mph 35.7 mph N/A   Scattered Clouds
2:50 PM 57.2 °F - 24.8 °F 29% 29.98 in 6.2 mi NNW 26.5 mph 38.0 mph N/A   Scattered Clouds
3:20 PM 55.4 °F - 24.8 °F 31% 30.01 in 6.2 mi NW 27.6 mph 47.2 mph N/A   Scattered Clouds
3:50 PM 53.6 °F - 24.8 °F 33% 30.01 in 6.2 mi NNW 25.3 mph 39.1 mph N/A   Scattered Clouds
4:20 PM 53.6 °F - 17.6 °F 24% 30.01 in 6.2 mi NNW 32.2 mph 52.9 mph N/A   Scattered Clouds
4:50 PM 53.6 °F - 14.0 °F 21% 30.01 in 6.2 mi NNW 28.8 mph 48.3 mph N/A   Scattered Clouds
5:20 PM 53.6 °F - 12.2 °F 19% 30.04 in 6.2 mi NNW 25.3 mph 41.4 mph N/A   Scattered Clouds
5:50 PM 51.8 °F - 12.2 °F 21% 30.06 in 6.2 mi North 12.7 mph - N/A   Scattered Clouds
6:20 PM 51.8 °F - 14.0 °F 22% 30.09 in 6.2 mi North 16.1 mph - N/A   Scattered Clouds
6:50 PM 51.8 °F - 14.0 °F 22% 30.09 in 6.2 mi North 16.1 mph - N/A   Partly Cloudy
7:20 PM 50.0 °F - 14.0 °F 24% 30.12 in 6.2 mi North 13.8 mph - N/A   Partly Cloudy
7:50 PM 48.2 °F - 19.4 °F 32% 30.12 in 6.2 mi NE 13.8 mph - N/A   Scattered Clouds
8:20 PM 46.4 °F 40.7 °F 17.6 °F 32% 30.15 in 6.2 mi NE 12.7 mph - N/A   Scattered Clouds
8:50 PM 46.4 °F 41.1 °F 17.6 °F 32% 30.15 in 6.2 mi NNE 11.5 mph - N/A   Scattered Clouds
9:20 PM 46.4 °F 41.5 °F 17.6 °F 32% 30.15 in 6.2 mi NNE 10.4 mph - N/A   Partly Cloudy
9:50 PM 46.4 °F 40.1 °F 15.8 °F 29% 30.15 in 6.2 mi NNE 15.0 mph - N/A   Partly Cloudy
10:20 PM 46.4 °F 40.1 °F 15.8 °F 29% 30.15 in 6.2 mi NE 15.0 mph - N/A   Partly Cloudy
10:50 PM 46.4 °F 39.8 °F 15.8 °F 29% 30.18 in 6.2 mi NE 16.1 mph - N/A   Partly Cloudy
11:20 PM 46.4 °F 39.8 °F 15.8 °F 29% 30.18 in 6.2 mi NE 16.1 mph - N/A   Partly Cloudy
11:50 PM 46.4 °F 39.2 °F 15.8 °F 29% 30.18 in 6.2 mi NE 18.4 mph - N/A   Partly Cloudy